STARLINK-2467 (48126 NORAD) Tracking and Keplerian Element Data

This shows tracking and keplerian element data for the satellite.

Feedback or suggestion? Click here.




ElementValue
Catalog48126
NameSTARLINK-2467
Epoch Orbit198
Epoch Day173.91668981
Epoch Year2021
RAAN321.8209
Inclination53.0459
Eccentricity0.0001119
Argument of Perigee65.1678
Mean Anonmoly251.9373
Mean Motion15.61920961
Decay Rate-0.01101874
L11 48126U 21027AL 21173.91668981 -.01101874 00000-0 -13697-1 0 9996
L22 48126 53.0459 321.8209 0001119 65.1678 251.9373 15.61920961 1987

Live tracking and technical data element details for STARLINK-2467 (NORAD 48126). STARLINK-2467 can be tracked NOW for your location showing map with azimuth and elevation plus other details from your city location.

Track the satellite on the map from your city or location and see movement details for azimuth, elevation, latitude, longitude, range, height, and movement on the map or in text.







IsCatalogInMostPopularTable: catalog: 48126, numindb: 37
Update: records affected: 1



GetName: 48126 STARLINK-2467

Hit Count: updated at: Thu, 24 Jun 2021 03:09:56 GMT